Theta_e
308 309 309 308 308 308 309 309 309 309 309 309 309 309 309 309 309 309 309 309 309 309 310 309 310 310 310 310 310 310 311 311 312 317 321 320 318 318 315 314 313 313 313 315 317 316 316 316 316 317 318 321 321 324 323 322 323 323 325 324 323 323 322 322 321 321 320 318 317 317 317 316 316 317 318 318 317 318 317 317 317 317 318 318 318 319 321 319
309 309 309 309 309 309 309 310 310 310 310 310 310 310 309 309 310 310 310 310 310 310 310 310 310 310 310 310 310 311 310 311 316 319 321 321 320 318 314 314 314 313 312 316 317 316 316 317 317 317 318 321 322 323 323 323 323 323 325 324 323 323 323 322 320 320 321 319 317 316 316 316 316 316 317 318 317 317 317 316 317 317 317 318 317 319 320 319
311 310 310 310 310 310 310 310 311 311 311 311 311 310 310 310 311 310 311 311 311 312 312 312 312 312 312 311 311 310 311 319 322 321 320 320 318 315 314 315 315 314 313 316 318 316 316 316 317 318 318 320 322 323 323 324 323 323 324 323 322 322 321 320 319 319 319 319 318 317 317 316 316 316 316 317 317 317 317 317 316 316 317 318 317 319 320 319
311 311 311 311 311 311 311 311 312 312 313 312 311 311 312 312 312 313 313 313 314 314 314 315 314 315 314 313 313 309 316 326 323 317 316 315 315 314 314 315 315 314 314 317 317 317 317 316 316 317 318 318 320 321 323 323 323 323 322 322 322 321 320 318 317 318 318 318 318 318 317 316 316 316 316 318 318 317 317 317 317 316 316 317 317 317 318 318
312 312 312 312 312 312 312 313 313 313 313 313 313 313 313 313 314 314 314 314 314 315 315 315 314 315 314 316 315 312 320 324 318 316 315 314 315 315 315 314 315 314 315 317 316 316 317 315 315 317 317 317 318 319 320 321 322 322 321 321 321 320 319 317 317 318 320 319 318 318 317 316 316 316 317 318 318 317 317 317 317 317 317 316 317 316 316 319
313 313 313 313 313 313 313 313 313 313 313 313 313 313 313 314 314 314 315 315 314 314 314 314 314 313 314 316 314 316 321 317 316 319 315 315 316 314 315 314 314 314 316 317 315 316 316 315 315 316 317 316 317 317 317 318 321 322 321 320 319 318 317 316 316 319 320 318 318 318 317 316 315 315 316 317 317 317 317 317 317 317 317 317 317 317 317 319
314 314 314 314 314 314 313 313 313 313 313 313 313 313 313 313 314 314 314 313 313 313 313 313 313 312 313 314 316 320 321 316 319 321 315 315 315 314 315 314 314 314 315 316 315 316 315 315 315 316 316 316 317 316 316 317 318 320 321 319 319 317 316 315 316 318 319 318 317 318 318 317 316 316 315 316 316 316 317 316 317 316 316 317 318 318 319 319
315 314 315 314 314 313 313 313 313 313 313 313 313 313 313 313 313 313 313 313 314 315 314 314 313 312 312 315 322 322 320 318 320 319 316 315 314 314 314 314 314 314 316 316 315 316 316 316 315 315 316 315 316 315 316 317 316 318 319 318 318 317 317 317 317 318 318 317 317 318 318 318 316 316 315 315 316 316 316 316 316 316 316 317 318 318 319 320
315 315 315 315 314 314 313 313 313 314 314 315 315 315 315 315 315 316 316 317 318 318 318 316 314 313 310 315 322 321 321 322 319 318 316 314 313 313 314 315 315 315 316 316 316 316 316 316 316 317 316 316 316 316 316 316 316 317 316 316 316 316 316 316 316 315 316 316 315 317 318 318 317 316 316 316 316 316 317 317 317 317 317 317 317 317 318 319
315 315 316 315 314 314 314 314 315 317 317 317 317 317 318 318 319 320 320 321 321 320 319 316 315 313 312 317 319 319 323 322 317 317 315 313 314 312 314 318 316 315 317 317 317 316 316 317 317 318 317 316 316 316 316 315 316 316 316 315 315 315 315 315 315 314 314 314 314 315 316 317 316 316 315 315 316 317 317 317 317 316 317 316 316 316 317 318
316 316 316 315 314 315 316 318 319 320 320 319 319 320 321 321 322 322 322 322 320 319 317 315 314 312 316 319 317 317 321 319 316 315 314 314 315 315 316 319 317 317 317 317 316 316 317 317 317 317 316 315 315 315 315 315 316 316 314 314 314 314 314 314 314 314 314 314 315 315 315 316 316 316 315 315 315 316 316 316 317 317 317 317 316 316 317 318
316 316 315 315 315 317 319 321 322 322 322 321 321 322 322 323 323 323 322 320 319 318 315 314 313 311 317 319 316 317 318 317 316 314 315 316 316 317 318 318 317 317 317 318 318 318 318 318 317 316 315 315 315 315 315 314 314 314 314 313 314 314 314 315 314 315 315 315 316 315 315 315 315 316 315 315 315 315 316 316 317 317 316 316 316 315 317 316
316 315 315 315 317 319 321 322 323 323 322 322 322 322 322 323 323 321 319 318 317 316 314 314 311 312 319 320 316 317 317 317 316 314 315 315 315 316 316 317 316 317 318 318 317 317 316 316 316 316 315 315 315 315 315 314 314 314 314 314 314 314 315 315 315 316 315 316 316 314 314 315 315 316 316 316 316 316 316 316 316 316 316 315 315 315 316 316
316 315 315 317 319 321 322 323 323 323 322 322 322 322 322 322 321 319 317 316 316 315 314 313 311 315 319 318 316 316 316 316 315 316 315 315 316 316 314 315 316 316 316 316 316 315 314 314 315 315 315 315 315 315 314 314 314 314 314 315 315 316 316 317 317 317 316 315 315 314 314 314 315 316 317 317 317 316 316 316 316 315 315 315 315 316 316 316
316 316 316 318 320 321 322 323 323 323 322 322 322 322 322 322 319 317 315 314 313 312 312 311 312 318 320 316 315 314 313 314 315 317 316 315 318 316 315 315 316 316 315 315 315 314 313 313 314 315 315 315 315 315 314 314 314 314 315 315 318 317 317 318 318 318 316 314 313 315 315 315 315 317 318 318 317 316 315 315 315 315 315 315 315 315 317 317
316 316 317 319 321 322 323 323 323 322 322 322 322 322 322 321 318 316 314 313 313 310 314 318 315 316 319 316 316 314 313 315 316 317 315 314 317 317 316 315 314 314 313 313 313 313 313 313 314 314 314 315 315 315 315 316 316 317 316 316 318 318 318 319 318 317 317 315 313 314 316 315 315 316 317 316 316 315 315 315 315 315 314 315 315 315 317 317
317 317 319 320 322 323 323 323 322 322 323 323 323 323 322 320 317 316 314 313 314 311 316 321 315 313 316 316 316 315 315 316 316 316 312 312 316 316 315 314 314 314 313 313 312 313 313 313 315 315 314 314 314 315 317 319 319 319 319 318 319 319 318 318 318 318 319 317 315 315 315 315 315 316 316 316 316 316 315 315 315 315 315 315 316 316 316 317
317 318 320 321 322 322 323 323 322 323 323 323 323 323 321 318 316 315 315 316 316 315 315 315 314 318 319 317 317 316 316 315 314 314 312 312 315 316 315 314 314 314 313 313 312 313 313 314 315 315 315 315 313 315 318 320 320 319 320 319 319 319 318 318 318 319 319 318 318 318 317 317 318 317 317 317 316 316 315 315 315 315 315 316 315 316 318 319
317 319 320 322 322 321 322 323 324 324 324 323 322 322 322 319 317 316 316 318 319 321 322 317 316 322 323 321 318 316 315 314 313 314 313 312 314 315 314 314 315 314 314 315 315 313 314 315 317 318 318 317 315 315 316 318 318 318 319 319 319 318 318 318 318 319 319 318 318 319 318 318 318 317 316 316 316 316 315 315 316 316 316 316 317 319 319 318
319 320 321 322 320 320 320 321 324 325 324 324 322 323 324 324 324 322 318 318 319 320 323 320 319 321 322 323 319 315 315 314 314 316 314 313 314 315 314 314 316 316 316 318 318 315 315 318 320 320 318 317 317 317 316 317 318 318 319 319 319 319 318 318 318 319 319 319 319 319 319 317 317 316 315 316 315 316 316 316 316 316 317 318 320 321 318 316
321 321 321 321 320 320 320 320 323 324 324 323 323 324 324 322 324 323 319 320 321 321 323 322 322 322 322 322 318 315 317 316 315 316 314 313 314 314 314 314 317 317 317 319 318 315 316 320 321 319 318 317 318 318 319 319 319 319 320 320 320 319 319 318 318 319 319 319 318 318 318 316 316 316 315 315 316 316 317 317 317 316 317 318 318 318 316 314
322 322 321 320 320 321 321 321 323 324 324 324 324 325 321 317 316 316 316 320 322 321 322 322 323 322 322 323 318 316 318 318 317 317 314 314 315 315 316 315 317 318 318 319 319 318 319 320 319 318 318 318 318 319 319 319 320 321 320 321 321 320 319 319 319 319 318 317 317 317 317 316 316 316 316 316 316 317 318 318 318 317 317 316 315 315 314 312
322 322 322 322 321 322 323 322 323 324 324 323 323 322 319 316 314 312 314 318 320 320 321 322 322 322 323 322 318 315 318 319 320 318 314 313 315 316 317 316 317 319 320 319 320 322 322 321 319 318 319 319 319 319 320 320 321 321 321 321 321 321 321 321 320 318 317 316 317 317 317 318 317 316 317 317 317 318 318 316 316 316 315 315 314 312 311 310
323 323 324 323 322 323 323 323 323 325 325 323 321 320 319 317 313 312 314 318 321 321 320 319 319 319 319 317 315 315 316 318 319 317 313 315 316 316 317 317 317 319 320 319 319 322 322 321 320 319 320 321 320 321 322 321 321 322 323 322 321 321 321 321 319 318 317 317 318 318 320 320 319 319 319 318 320 318 315 313 313 314 314 314 312 311 310 309
324 324 324 322 322 324 324 324 325 325 325 323 320 319 319 316 313 313 315 319 322 321 319 318 317 317 314 313 313 314 315 316 316 315 313 315 316 316 317 317 318 320 320 320 320 321 321 320 321 320 320 321 321 321 322 322 322 322 323 324 322 321 321 321 321 320 319 320 320 319 322 324 321 321 321 319 320 318 313 312 312 312 312 312 311 310 310 308
324 324 323 322 323 324 324 324 324 324 324 322 320 319 318 316 314 313 315 320 324 324 322 319 318 316 312 313 313 313 316 316 313 313 315 314 313 314 315 317 318 319 319 319 320 321 319 319 321 321 321 322 323 322 321 322 321 321 324 325 323 321 322 322 321 321 321 320 319 318 322 322 320 320 321 320 320 316 313 313 312 311 311 311 310 309 308 308
324 324 324 324 324 324 324 324 324 324 323 322 320 319 318 317 315 313 317 325 328 325 321 317 317 315 312 312 312 314 319 317 312 312 313 313 312 312 315 316 317 318 316 317 322 322 319 320 321 321 321 323 324 322 322 322 322 323 324 323 322 320 321 321 320 320 320 319 318 318 320 321 321 321 320 320 320 315 313 313 312 311 310 309 309 308 307 306
324 324 324 324 324 323 323 324 324 323 322 321 320 320 319 316 314 314 321 330 330 322 318 314 312 312 311 311 312 313 314 313 314 313 310 311 312 312 315 316 317 317 314 318 324 322 318 322 323 322 322 323 322 321 324 323 322 324 321 318 318 318 318 318 318 320 319 318 320 321 321 323 324 322 319 321 319 315 313 313 312 311 309 308 307 306 306 305
323 323 323 323 322 322 322 323 323 322 321 321 321 320 318 315 315 317 322 327 326 320 317 313 311 312 312 311 312 312 310 310 313 313 310 311 312 311 313 314 314 316 315 317 321 320 319 319 319 322 323 322 320 321 326 325 322 321 318 317 317 318 318 318 319 319 318 320 321 322 322 324 326 324 321 321 318 314 314 312 311 310 308 307 306 305 305 304
321 321 321 322 321 321 322 322 322 322 321 321 321 320 317 317 319 323 326 326 321 319 316 313 314 314 312 311 313 312 311 311 311 311 311 312 312 311 311 311 311 314 317 317 319 319 317 313 313 318 320 319 319 321 322 324 321 317 317 318 318 320 321 320 319 318 320 323 323 322 321 322 328 330 322 319 317 314 313 312 310 308 306 306 305 304 303 302
320 319 320 320 321 321 321 322 322 321 321 321 321 319 319 323 324 325 327 322 318 320 317 315 316 314 313 315 317 313 312 313 312 312 313 313 313 312 312 314 313 316 319 320 321 320 317 315 315 318 318 317 319 321 318 318 317 316 316 317 319 322 321 319 320 319 321 326 324 323 323 321 326 328 318 316 316 314 313 312 310 307 305 304 303 302 302 301
318 318 319 320 320 320 321 322 320 320 321 320 320 320 323 326 325 325 325 319 319 323 320 320 318 315 316 318 319 317 315 316 313 313 315 315 315 315 315 318 319 321 323 324 326 324 322 321 317 317 318 316 318 320 318 316 315 315 316 315 319 324 323 323 324 323 325 326 322 323 325 323 324 323 318 317 315 312 312 310 308 305 304 303 302 301 301 300
315 316 317 319 320 319 319 320 319 320 321 319 321 324 324 325 326 325 324 321 323 324 322 322 319 317 319 319 320 321 320 320 315 313 317 319 319 319 319 319 321 324 324 324 325 324 325 324 320 319 319 317 318 319 320 321 317 314 317 320 322 324 323 323 325 325 326 324 320 319 322 324 324 320 318 314 309 308 308 306 305 304 303 302 301 300 300 299
313 314 315 316 318 318 319 319 319 320 318 319 325 326 323 323 325 324 324 323 323 322 320 320 318 318 320 320 321 321 321 322 318 316 319 321 322 323 322 320 322 323 322 323 324 322 323 323 321 321 320 318 318 317 320 322 318 315 318 321 323 324 322 321 321 323 325 324 320 318 320 324 322 317 313 309 306 306 305 304 303 302 302 301 300 299 299 298
309 310 312 313 315 316 318 318 319 319 318 321 326 324 320 321 322 321 322 321 320 320 320 320 320 320 321 320 321 321 322 323 321 320 322 322 322 323 321 320 321 321 322 324 322 320 320 321 321 321 319 316 318 319 319 321 321 319 318 319 322 323 322 322 322 322 323 323 320 319 322 323 318 313 310 307 306 305 304 303 303 302 302 301 300 299 298 298
305 306 308 309 311 314 316 317 318 318 319 322 323 320 318 319 320 320 320 319 319 320 320 322 322 322 322 321 321 322 321 321 322 323 323 321 321 321 320 319 321 322 322 322 320 317 318 320 322 321 318 315 317 319 318 319 321 320 320 322 322 321 320 322 324 321 319 321 319 317 319 318 314 314 309 306 306 304 304 303 302 302 301 300 300 299 298 298
302 303 304 305 307 311 313 315 316 317 320 323 321 318 317 317 317 317 319 319 318 319 321 322 322 321 321 320 321 322 322 321 321 322 321 321 320 320 318 318 321 320 319 318 320 320 319 320 322 322 321 317 313 316 316 316 318 320 321 322 319 320 321 319 320 320 319 320 317 315 317 315 315 317 311 307 306 305 304 303 302 301 301 300 300 299 298 297
302 302 304 304 305 307 310 313 315 317 320 321 319 318 316 316 315 314 318 319 318 319 320 320 319 317 317 318 319 322 322 321 321 322 321 319 319 319 317 318 318 316 314 315 318 320 319 320 321 320 322 318 312 314 318 317 317 318 318 318 317 321 323 320 319 320 321 319 317 316 317 315 316 318 313 309 306 305 304 303 302 302 301 300 299 298 298 297
303 304 306 306 305 304 306 311 315 317 320 319 317 316 316 315 315 314 316 317 317 318 319 318 317 316 316 316 317 320 321 320 320 320 320 318 318 318 317 318 317 313 312 314 316 318 318 320 321 319 319 318 315 316 319 318 317 315 314 316 316 318 320 319 319 320 321 319 318 317 318 318 318 316 313 309 307 306 305 304 303 302 301 300 300 299 298 297
304 306 307 307 306 304 306 312 316 317 318 317 315 315 315 315 316 315 315 317 318 318 317 318 317 316 316 316 316 318 319 320 319 318 318 316 315 317 318 318 318 316 314 314 316 317 317 318 320 319 317 318 317 318 319 319 318 316 315 316 316 316 318 318 318 318 318 318 318 317 317 319 316 312 310 309 309 308 307 306 305 303 302 302 301 300 299 298
305 307 308 307 306 306 309 313 316 316 317 316 314 314 314 314 317 317 317 317 318 316 316 317 318 317 317 317 316 316 316 318 317 316 317 315 313 315 316 315 317 316 316 316 317 317 317 317 318 318 318 318 317 317 317 318 319 320 318 317 317 317 318 318 317 317 317 317 318 317 318 318 314 309 309 309 308 309 307 305 305 303 302 302 300 299 299 298
304 307 308 307 306 309 311 313 314 314 316 315 314 314 314 314 316 318 317 317 317 317 316 317 318 318 318 317 317 316 315 316 316 317 317 316 314 315 315 313 314 314 314 315 317 317 316 316 316 316 316 315 315 314 314 315 316 319 320 319 319 319 318 318 318 317 317 318 318 317 317 318 312 308 309 309 307 307 307 305 304 303 301 300 299 298 297 297
304 306 307 307 308 310 311 311 312 312 314 314 313 314 315 315 316 317 317 316 317 317 317 317 317 316 317 317 316 316 315 315 315 316 316 316 315 313 313 312 313 314 314 315 316 315 314 315 316 316 314 314 314 314 314 315 316 318 318 316 317 317 317 317 316 315 315 316 317 316 316 317 313 308 308 308 307 306 306 305 304 302 301 299 298 297 296 296
304 306 307 307 308 310 310 311 311 312 312 312 312 314 314 315 316 316 315 315 315 315 315 315 315 315 315 315 314 315 314 314 315 314 315 316 314 310 310 312 312 312 313 315 315 315 314 315 315 315 315 315 314 313 314 316 316 314 314 313 313 313 314 314 313 313 313 314 314 315 315 316 314 309 307 307 306 305 304 303 303 302 301 299 298 297 297 296
304 305 306 307 308 309 310 310 310 312 312 312 312 313 313 313 315 315 315 314 314 313 313 313 313 314 314 314 315 316 316 316 316 316 317 317 314 310 309 311 311 311 311 311 313 314 314 314 314 314 314 313 312 312 314 315 314 310 310 311 311 311 311 312 312 312 313 313 312 311 312 312 311 310 308 307 305 304 302 301 301 301 300 299 298 297 297 296
304 303 305 306 307 309 310 309 310 311 312 312 312 312 312 312 312 314 315 314 313 313 313 312 313 314 315 314 315 316 315 315 316 315 316 316 315 311 308 308 309 309 308 309 311 311 311 312 312 313 313 312 311 311 312 312 311 309 309 310 309 309 309 310 310 311 311 311 309 309 309 309 308 308 307 307 305 304 302 300 299 299 299 298 298 298 297 295
302 303 305 306 307 308 309 309 309 310 311 312 312 311 311 311 311 312 314 314 313 312 312 312 313 314 314 314 314 314 313 313 314 314 313 314 314 310 307 307 307 307 308 309 309 309 309 310 310 311 311 311 311 310 310 310 309 309 309 309 308 308 308 309 309 309 309 309 308 307 307 307 306 306 305 305 304 304 303 301 299 299 299 298 298 297 296 295
300 301 303 304 306 307 308 309 309 309 310 311 311 310 310 310 310 311 313 313 311 311 312 311 312 312 312 313 312 312 311 311 311 312 312 313 313 309 307 307 306 305 307 307 307 306 307 308 308 308 308 308 308 308 307 307 307 307 307 307 307 306 306 306 306 307 307 308 306 305 305 306 305 304 305 304 303 303 302 300 298 298 298 297 297 296 296 297
299 300 299 301 304 306 307 308 308 308 309 310 311 310 310 309 309 309 311 312 311 311 311 310 311 312 312 312 311 311 311 310 311 312 311 311 311 309 308 308 305 303 304 305 305 305 306 306 306 306 306 306 306 306 306 305 305 305 305 305 305 305 305 305 304 305 306 306 305 305 305 304 304 303 303 302 301 300 299 297 297 296 296 296 296 295 295 296
299 299 299 300 303 303 304 307 308 308 308 309 309 310 309 309 309 308 310 311 311 311 311 310 311 312 311 312 312 311 310 310 310 311 308 307 308 307 308 307 305 303 303 303 304 305 305 306 305 305 305 305 304 304 305 305 305 303 303 303 303 303 303 303 303 303 303 303 303 303 303 302 302 302 300 299 299 297 296 296 295 295 295 295 294 293 294 294
297 297 297 299 301 302 303 305 307 307 307 308 308 308 308 308 308 307 309 309 309 310 310 310 310 309 307 308 309 309 308 307 307 307 305 305 306 305 305 306 304 303 303 303 304 305 305 305 304 303 303 302 302 302 302 301 301 301 301 301 301 300 300 301 301 301 301 301 301 301 302 301 301 300 298 297 296 295 294 294 294 294 294 293 292 293 293 293
296 296 296 297 300 302 303 304 306 307 306 306 307 307 307 307 307 307 307 307 306 306 307 308 308 307 306 307 307 305 305 304 303 303 302 302 302 302 302 303 303 303 303 302 303 304 304 303 302 302 302 301 301 300 299 299 300 300 300 300 299 300 300 300 300 300 300 301 301 301 301 301 301 299 297 295 294 293 293 293 293 293 293 292 292 293 293 293
Wind_Speed
3 2 3 3 3 3 4 4 4 4 5 5 5 6 6 6 6 7 7 7 8 8 9 10 10 11 12 12 13 15 17 18 17 11 9 11 10 9 9 7 5 3 5 5 6 5 4 6 6 6 4 2 2 2 2 2 1 0 1 2 4 4 5 3 5 4 4 5 6 4 4 6 6 2 2 1 3 5 8 10 7 8 8 13 17 13 12 13
4 3 3 4 4 4 4 4 4 5 5 5 6 6 6 6 7 7 8 8 8 9 9 10 11 11 12 12 13 14 17 19 16 12 12 13 11 8 7 5 4 2 6 8 8 7 5 4 6 7 3 1 3 2 2 2 2 2 2 3 4 4 5 6 7 6 5 5 7 7 7 6 7 6 2 2 6 5 7 10 8 9 9 13 16 15 17 15
4 4 4 4 5 5 5 5 4 5 5 5 6 6 6 6 7 8 9 9 9 10 10 10 11 11 11 11 12 13 16 15 11 6 3 3 3 2 1 2 3 1 5 7 7 8 7 5 2 6 3 2 3 3 2 2 3 4 3 3 5 5 7 7 8 7 6 6 7 7 6 6 7 6 3 5 7 5 7 10 8 10 9 8 8 8 16 17
4 4 4 4 5 5 5 5 5 5 5 6 6 7 8 8 9 10 10 10 11 11 11 11 11 11 10 10 10 11 12 9 4 1 7 7 5 4 3 3 4 2 7 5 4 8 7 6 4 3 3 3 4 3 3 3 2 3 4 4 6 5 7 8 10 10 7 6 6 6 7 8 8 6 5 5 6 6 7 9 8 11 11 9 10 5 6 13
5 4 4 5 5 5 5 5 5 5 6 6 7 8 9 9 10 11 12 12 13 13 13 13 12 12 10 10 9 8 8 4 0 3 7 6 4 2 2 3 3 4 8 4 4 5 6 6 5 3 3 3 4 3 4 6 4 2 4 6 7 6 8 8 10 7 4 5 6 7 8 8 7 6 6 6 7 6 6 9 11 12 12 11 11 10 8 6
5 4 4 5 5 5 5 4 5 5 6 7 7 8 9 10 11 12 13 13 14 14 14 14 13 11 10 8 5 3 3 2 0 4 8 3 1 3 3 2 1 6 9 4 6 5 5 6 5 3 3 4 5 5 5 6 6 4 6 6 7 8 9 9 10 5 3 3 6 7 8 7 8 10 8 7 10 10 8 11 13 13 13 13 12 9 9 9
6 5 5 6 5 4 4 5 5 5 6 7 8 9 9 10 11 12 13 14 14 15 15 15 14 11 9 5 2 1 2 6 5 5 8 6 5 5 5 3 2 8 9 7 8 6 5 5 5 4 4 5 6 7 7 6 4 5 6 6 8 10 11 11 9 6 2 5 7 7 7 8 9 10 10 9 11 12 12 12 13 14 13 13 11 10 10 10
7 6 6 5 5 4 4 5 5 6 6 7 8 9 9 11 12 12 13 14 14 15 15 15 13 11 7 2 1 2 3 6 7 5 6 7 7 7 5 3 6 10 9 10 10 6 5 5 6 4 5 6 6 7 6 6 4 6 7 6 7 8 9 9 8 8 7 7 8 6 8 11 9 9 13 13 13 14 14 13 13 14 13 11 10 11 10 9
7 6 5 5 4 4 4 5 5 6 6 8 9 9 10 10 11 12 13 14 14 15 15 14 12 8 3 0 2 3 4 6 7 7 7 8 7 5 4 3 8 10 8 10 10 9 5 4 5 2 3 5 5 7 6 5 4 5 6 6 7 7 8 9 10 11 10 8 8 8 9 11 8 7 12 13 12 13 12 11 11 11 11 9 9 9 9 9
6 6 5 5 4 4 4 4 5 6 7 8 9 9 10 11 12 13 14 14 14 15 14 13 9 5 2 2 3 3 3 4 5 6 7 7 4 3 4 3 6 9 8 9 10 9 6 4 3 3 4 4 5 6 6 6 5 3 5 6 8 9 10 10 12 14 12 9 11 11 10 10 6 3 8 10 9 9 8 8 9 8 9 8 8 8 8 9
6 6 5 5 4 4 4 5 5 6 8 8 9 10 11 12 13 14 14 14 14 14 14 11 7 2 2 2 4 3 2 3 4 4 5 3 1 3 7 5 5 9 9 9 10 8 7 5 5 4 2 2 3 7 6 5 5 4 6 7 10 11 12 13 13 14 11 8 10 8 6 8 6 5 11 14 11 10 9 10 10 9 8 8 9 9 8 8
6 4 4 4 3 4 4 5 6 7 9 9 10 11 12 12 13 14 14 14 13 13 12 10 5 3 3 3 6 8 5 4 4 4 3 1 2 5 7 7 6 8 7 7 5 3 4 5 6 1 3 3 4 6 3 3 5 4 3 6 12 12 12 13 13 14 11 6 5 4 0 5 6 8 14 16 12 9 9 9 9 8 9 9 9 9 7 8
5 4 3 3 3 3 4 5 7 9 10 10 11 12 13 13 14 13 13 13 13 12 11 7 2 5 3 2 6 12 13 9 6 6 5 3 2 4 6 7 8 8 6 4 2 3 3 4 4 3 5 5 5 5 2 1 3 5 4 5 9 9 8 10 10 9 7 3 7 6 1 3 6 10 12 10 6 5 7 7 8 9 10 11 10 9 8 8
5 4 3 3 3 4 5 6 8 10 11 12 13 13 14 14 13 12 12 12 11 11 9 4 4 6 2 3 4 8 12 10 6 4 4 2 1 2 4 6 6 7 7 3 2 2 3 4 3 3 5 5 5 7 6 4 3 6 7 5 5 4 4 8 7 3 2 1 6 6 2 4 6 10 10 6 4 7 9 8 10 11 12 13 10 8 8 8
5 4 3 3 4 5 6 7 9 11 13 13 13 14 15 14 11 9 9 9 8 6 4 1 7 5 1 5 4 4 6 5 4 4 2 3 3 1 2 3 3 4 4 3 3 2 2 2 1 1 4 5 5 5 6 4 3 4 6 4 4 4 4 8 6 4 3 2 3 6 2 6 7 7 7 7 7 9 11 11 13 14 14 14 11 8 7 7
6 4 3 4 4 5 6 7 9 11 13 13 13 14 15 13 9 7 7 6 5 2 2 2 6 4 4 3 3 3 4 3 6 7 4 5 5 2 6 4 1 2 2 2 2 2 1 1 1 0 2 4 3 4 4 4 4 4 5 4 5 5 4 5 2 4 5 2 4 6 4 5 5 6 7 8 10 9 11 14 15 15 14 12 10 7 7 7
5 4 3 4 5 5 6 7 9 11 12 12 13 14 14 11 8 6 4 4 4 2 1 2 2 4 3 2 2 2 3 4 6 4 3 7 6 5 7 4 3 3 2 1 1 2 2 2 2 1 1 3 3 3 3 3 4 3 4 4 5 6 5 4 2 2 2 3 4 7 6 7 7 7 8 9 10 10 12 14 14 12 11 11 9 7 7 6
5 4 4 4 5 6 6 7 8 10 12 12 13 14 13 10 8 6 4 4 4 2 1 2 2 3 2 2 2 2 5 6 6 3 3 7 8 7 6 3 4 5 4 2 2 3 3 2 2 1 2 4 4 3 3 5 5 4 5 4 5 6 6 6 5 7 6 5 7 8 8 9 8 6 7 9 11 12 14 12 11 11 11 12 10 7 6 6
5 4 5 5 5 7 7 8 8 11 13 12 13 15 12 7 7 6 5 4 2 2 2 1 4 3 4 3 1 5 6 6 5 3 5 7 7 7 5 3 5 5 3 2 3 5 3 1 2 2 3 5 6 8 8 9 8 9 9 7 7 7 6 7 9 8 9 10 8 8 9 9 9 8 9 11 12 13 13 10 10 10 9 9 7 5 7 10
6 6 6 5 5 8 8 9 9 11 14 13 15 14 8 3 3 2 3 5 5 7 7 5 7 7 10 7 3 5 3 4 4 3 7 9 8 7 5 4 4 2 3 3 4 4 4 3 3 4 7 9 11 11 11 10 10 11 9 7 8 6 6 8 9 9 7 7 6 6 8 8 9 11 13 14 12 12 11 10 12 10 6 4 5 7 10 12
7 7 6 5 7 9 10 11 10 13 14 12 14 10 3 3 3 1 2 5 9 13 12 12 13 13 14 9 5 6 1 2 4 5 9 10 9 7 5 5 4 2 6 6 3 2 2 3 5 8 12 13 12 10 10 10 10 9 7 6 6 6 8 8 10 10 5 3 4 5 7 7 9 13 17 15 11 10 10 11 11 6 4 6 8 9 11 11
6 6 6 6 8 10 12 13 12 14 12 8 10 7 4 5 3 2 3 5 8 14 14 15 17 14 16 12 4 5 1 3 5 5 10 10 6 5 4 6 5 4 6 6 3 2 2 5 10 13 12 11 10 9 9 10 9 7 5 5 5 5 7 7 8 7 3 2 4 7 7 7 11 16 18 13 9 9 9 6 4 8 11 10 10 10 12 12
6 7 7 8 9 10 12 13 13 12 9 6 7 5 4 4 3 2 2 4 7 13 11 11 13 10 10 8 3 4 3 6 6 6 12 11 5 3 4 5 6 5 5 6 5 3 3 6 11 11 9 9 9 8 8 8 6 4 3 4 5 5 5 5 4 6 7 4 6 8 6 5 10 15 14 11 9 7 3 8 12 12 12 11 12 12 12 13
9 10 10 10 10 10 11 13 12 7 4 3 4 4 4 4 3 2 2 3 6 7 3 2 3 3 3 2 3 3 5 5 4 5 13 11 4 3 4 6 6 5 5 8 8 7 7 8 7 5 5 7 6 7 7 5 4 4 5 5 6 6 6 5 4 7 7 6 5 5 4 5 7 8 6 5 7 3 7 13 13 12 11 11 13 13 12 12
13 14 13 11 11 11 11 12 8 4 4 2 1 2 4 4 2 1 1 3 4 2 1 1 1 0 0 1 3 2 3 3 1 3 7 4 2 3 2 3 5 5 6 9 9 7 8 7 4 3 4 3 3 5 6 3 3 5 5 6 5 5 5 5 6 6 4 4 2 3 3 4 4 6 6 6 7 1 9 12 11 10 10 10 10 11 11 11
16 16 14 13 13 11 9 6 2 3 4 0 1 2 4 4 2 0 1 2 4 1 1 0 1 2 2 3 3 1 2 2 2 3 4 0 1 1 1 1 2 3 3 4 4 3 4 1 3 1 3 2 3 6 6 4 3 4 3 2 2 2 3 4 5 3 1 4 4 1 2 5 4 4 7 10 7 4 11 10 9 8 9 10 9 9 9 9
18 17 16 14 12 9 4 2 2 3 2 2 2 3 3 4 2 1 1 2 3 1 2 1 1 1 2 2 2 1 1 2 3 2 2 0 1 1 1 2 2 2 1 1 1 1 3 3 4 2 2 3 4 5 6 6 4 3 2 1 2 2 3 4 2 2 3 4 5 4 4 5 5 5 10 13 6 8 11 8 8 7 9 11 10 9 9 9
19 17 15 13 11 9 6 3 2 2 1 2 3 3 4 4 1 1 2 3 2 1 1 0 1 1 1 1 2 1 1 2 2 1 2 1 2 2 2 4 2 2 3 3 2 1 1 4 4 4 4 4 5 5 5 7 5 2 1 1 2 1 2 2 2 4 4 4 5 5 6 3 5 5 8 9 4 9 8 7 7 7 10 11 10 10 9 9
16 14 12 11 8 9 9 6 2 0 1 2 3 4 5 4 1 1 1 2 1 1 1 1 2 1 1 1 2 2 1 2 1 1 2 1 2 0 2 3 4 3 2 5 5 3 0 2 3 5 5 5 5 3 2 3 3 2 1 1 1 1 3 3 4 3 3 3 5 5 6 3 4 6 5 1 5 7 6 6 7 7 9 10 9 9 8 8
11 9 9 9 7 8 9 7 6 5 3 3 4 4 4 3 1 1 3 2 1 1 1 1 1 1 3 3 3 4 3 2 2 2 1 1 1 0 1 1 2 3 2 3 6 7 3 2 1 2 5 4 3 2 3 2 1 1 0 2 2 4 4 3 3 2 1 3 6 8 10 7 3 6 2 2 5 9 8 6 7 8 9 8 8 8 8 7
9 8 8 9 8 8 6 4 5 5 5 4 3 3 2 2 1 3 4 1 1 0 2 2 1 2 4 4 1 3 4 3 4 4 3 1 2 1 2 1 0 1 2 3 5 7 3 2 1 2 4 2 4 2 2 3 2 1 2 3 4 4 1 1 1 1 1 4 5 5 7 10 4 3 1 3 6 8 9 8 9 9 9 8 7 7 7 7
9 8 9 10 9 8 6 3 3 3 5 4 0 2 1 0 3 5 2 2 0 2 1 1 2 3 4 3 1 3 3 3 5 5 4 4 4 3 4 3 2 1 2 2 2 3 2 4 5 2 2 3 4 1 1 2 2 3 2 1 2 3 1 0 1 2 3 5 3 4 3 5 5 4 5 2 8 8 7 8 10 10 9 8 7 7 6 6
8 7 9 10 9 8 7 4 4 4 6 4 2 2 2 2 4 3 4 3 1 2 2 2 1 2 2 2 2 3 2 1 5 5 4 5 4 4 6 7 5 2 3 2 2 4 2 3 4 3 2 3 6 3 2 2 2 5 4 4 3 1 2 3 3 3 4 3 1 4 5 1 4 4 3 5 10 9 10 11 10 10 10 9 7 6 6 5
7 7 8 9 9 9 9 5 4 6 7 5 3 3 1 5 4 1 2 4 2 1 2 2 1 1 2 2 2 2 2 3 5 6 4 4 3 4 5 7 7 5 3 3 3 3 5 5 3 5 2 4 8 6 3 2 3 6 4 4 5 3 3 4 4 3 3 2 2 1 1 1 3 1 4 9 10 9 10 10 10 10 9 8 7 6 5 5
5 6 7 8 10 11 10 7 5 7 7 4 3 2 4 5 2 0 3 3 3 3 1 3 1 2 3 3 3 2 2 3 5 5 4 4 3 3 3 4 6 6 4 3 3 3 6 6 2 2 1 4 5 4 0 3 0 3 1 2 3 3 3 3 4 3 2 3 3 2 2 3 1 5 7 9 10 10 9 8 9 8 7 6 6 5 5 5
4 5 6 8 12 13 12 10 8 7 5 3 2 4 7 4 2 2 2 2 3 4 3 0 2 3 5 3 4 5 3 2 2 1 2 3 4 6 5 2 2 5 5 4 2 1 3 3 1 1 2 1 1 2 2 1 0 1 2 2 3 2 2 2 5 3 2 3 5 4 4 5 1 4 6 8 10 10 7 7 8 7 6 6 5 5 4 4
2 3 4 8 13 15 14 12 10 8 4 3 4 7 4 3 6 5 2 2 2 2 3 3 2 3 4 3 4 6 2 1 2 2 1 2 3 5 7 2 3 1 0 1 1 2 1 2 2 2 0 1 1 2 3 2 2 3 2 2 2 1 1 1 2 2 3 5 5 5 7 6 4 2 3 7 8 8 6 6 6 5 5 5 4 4 4 4
1 2 4 9 14 15 15 15 14 9 3 2 8 9 4 4 7 7 3 2 3 2 3 5 3 3 5 5 4 2 3 1 3 4 1 2 3 1 3 2 3 3 4 3 0 2 2 2 3 1 1 1 0 2 2 3 1 3 2 1 1 0 1 0 1 2 4 6 4 5 8 7 4 3 4 6 7 8 6 6 5 4 4 4 4 3 3 2
1 1 2 5 10 13 16 18 14 7 3 5 10 9 6 7 9 9 6 3 4 4 5 6 5 4 6 7 5 1 5 5 4 3 2 3 4 1 3 1 1 2 4 4 1 2 2 2 2 1 1 1 1 1 1 3 2 2 2 1 1 3 3 2 1 2 4 5 4 5 6 4 3 1 4 7 7 8 7 5 5 4 5 4 4 3 3 2
2 1 0 4 8 13 18 18 11 6 7 8 9 7 5 5 7 9 8 3 2 4 5 6 6 6 8 8 8 4 4 5 5 3 2 2 3 2 5 3 2 2 3 4 1 1 1 2 3 1 1 1 0 2 4 2 1 1 1 2 2 1 2 1 2 3 4 5 5 5 6 3 2 3 4 8 7 7 7 6 5 4 5 4 3 4 4 4
2 1 1 5 11 18 19 13 7 7 7 7 9 9 8 5 3 3 2 2 2 3 2 3 5 6 6 6 7 5 4 4 5 4 3 4 4 1 2 3 2 2 2 2 1 0 0 1 2 2 2 2 3 2 1 2 1 3 3 2 2 0 1 3 5 4 3 4 4 5 7 3 1 1 4 7 5 6 7 6 5 5 5 5 4 4 4 4
2 1 2 8 17 22 17 7 6 5 5 7 7 7 6 5 3 2 2 2 2 2 2 3 4 4 3 4 4 3 2 2 3 3 2 3 3 1 0 1 2 2 1 1 0 2 2 1 1 4 5 6 8 8 6 5 3 4 4 3 3 3 2 3 5 4 2 2 1 3 5 2 0 1 4 6 5 6 6 7 7 6 5 6 5 4 4 4
2 2 3 10 20 20 10 5 6 5 6 7 6 5 5 3 3 3 4 3 3 3 3 4 5 5 5 5 4 4 4 3 3 4 3 3 1 3 2 1 2 1 1 1 1 1 2 1 2 4 5 6 9 9 6 4 1 2 1 1 1 1 1 2 3 1 1 3 4 5 6 3 1 2 1 4 5 5 4 5 6 5 5 5 5 5 4 4
2 1 2 10 20 16 7 5 7 7 8 7 6 8 8 6 6 5 6 7 5 4 4 5 6 7 7 7 5 5 5 3 5 6 4 3 1 4 5 5 3 2 2 1 1 1 1 1 1 1 3 4 5 5 3 4 4 1 1 3 2 3 5 3 1 1 2 5 6 5 4 3 2 2 2 2 5 4 2 3 5 5 5 4 4 4 3 3
2 1 1 7 15 12 5 4 4 5 8 9 9 10 9 7 8 8 7 7 6 5 4 4 4 4 4 5 2 2 3 1 1 2 0 1 0 3 4 6 4 3 2 2 2 1 1 1 1 2 3 5 5 4 1 2 2 1 2 4 4 5 5 4 3 3 3 3 2 3 5 5 3 4 4 3 4 3 2 2 3 4 5 4 4 4 4 3
1 2 1 3 6 7 4 3 3 3 5 7 8 9 10 9 8 7 7 8 7 7 5 4 2 1 1 4 2 2 4 3 3 2 1 1 1 1 3 5 6 4 3 3 4 3 1 1 2 4 5 6 7 6 2 0 2 4 6 8 8 8 7 4 4 5 5 4 4 7 9 9 9 8 7 3 4 4 5 5 5 5 5 5 5 4 3 2
1 2 3 3 3 5 5 5 6 5 4 4 5 6 10 11 8 6 7 6 5 6 5 5 5 4 3 5 5 5 6 6 5 6 5 3 2 2 3 4 5 3 2 1 2 1 2 2 4 6 7 7 8 9 8 7 6 8 9 11 11 10 8 7 7 6 4 5 8 10 11 10 10 11 10 7 5 5 6 7 6 5 5 5 4 3 2 1
2 2 1 2 2 5 7 6 8 10 8 6 4 4 8 11 9 7 6 3 3 5 4 4 8 9 8 7 5 4 5 6 5 5 5 3 2 2 1 3 3 2 2 1 1 2 3 4 5 5 7 9 9 10 9 9 8 8 10 11 12 13 12 10 9 6 5 7 10 10 12 13 11 10 12 10 6 2 3 4 4 4 5 5 4 3 4 4
2 2 3 2 1 3 6 6 8 11 12 8 4 5 8 8 9 7 4 3 4 5 5 6 7 7 7 7 7 5 4 4 4 3 1 1 2 2 2 1 1 1 2 1 0 1 2 3 3 3 5 8 10 10 8 8 9 10 11 12 13 15 15 11 10 9 9 10 11 11 13 14 12 12 11 6 1 4 4 4 4 4 5 5 5 3 3 3
1 1 1 2 1 1 2 4 7 9 10 8 7 8 7 7 9 6 2 3 4 5 7 8 5 1 1 1 3 4 3 3 3 2 2 2 1 2 1 1 1 1 1 1 1 1 1 1 0 1 3 7 9 7 5 5 6 7 10 13 14 14 13 11 11 10 9 10 12 13 14 14 10 6 4 1 4 4 3 3 2 3 4 4 2 0 1 2
2 2 1 2 2 2 1 2 5 6 6 7 8 8 7 7 9 6 1 0 1 2 4 6 5 3 3 3 2 1 3 6 5 3 3 3 1 1 1 0 2 3 1 1 0 1 1 1 2 1 3 7 7 3 0 2 3 5 12 17 18 14 11 12 11 9 10 11 12 12 11 9 4 1 2 3 5 4 3 3 3 4 5 5 2 2 2 2
2 1 2 2 2 3 3 3 4 6 6 6 8 8 8 8 8 6 3 1 3 2 1 5 7 4 2 2 2 1 4 6 5 3 3 3 1 1 1 1 1 3 3 2 1 1 2 2 1 1 4 7 4 3 4 4 3 7 11 13 13 12 12 12 11 12 14 12 10 9 8 5 3 3 3 2 4 2 2 2 3 3 2 1 2 4 4 2
Wind_Direction
308 314 317 322 324 327 328 326 322 320 324 323 319 320 323 324 323 323 320 320 323 326 326 324 325 327 330 332 330 328 323 318 315 299 261 270 274 273 288 289 301 280 199 166 152 179 184 201 212 191 188 150 186 222 129 151 182 220 223 224 250 248 257 323 331 323 346 331 334 326 325 327 323 341 92 36 243 246 267 267 262 254 241 237 241 227 199 193
311 312 318 323 324 324 324 322 321 320 322 319 313 316 321 320 319 315 313 317 321 324 324 325 326 329 334 336 335 333 325 318 309 281 263 274 273 265 278 297 303 235 178 173 177 202 208 212 197 179 197 184 172 152 138 164 155 205 241 241 247 253 276 317 314 314 337 321 318 316 323 335 331 330 347 270 270 274 282 280 284 276 261 252 241 205 187 191
315 318 325 330 332 327 323 321 321 324 320 316 312 313 316 314 312 311 313 316 319 321 323 324 325 330 336 339 341 338 327 318 304 282 264 257 227 205 300 348 330 217 173 180 195 221 244 294 233 180 212 237 195 154 152 167 153 206 221 244 251 263 286 304 309 314 319 315 313 307 332 336 310 308 291 272 279 271 269 274 284 283 275 282 279 194 183 191
315 322 330 333 331 326 327 325 323 324 322 319 317 317 317 316 314 315 316 318 320 321 321 322 325 330 335 342 343 341 331 313 295 79 106 116 132 115 77 44 12 149 167 185 233 242 256 296 283 218 234 256 237 196 184 178 160 205 198 234 261 287 301 303 307 311 319 328 326 312 321 311 294 292 280 282 284 260 253 262 269 280 289 301 313 312 207 195
317 322 327 327 324 325 328 325 320 318 319 319 317 317 318 317 317 317 318 319 321 319 319 319 322 327 333 343 340 342 337 310 82 134 144 127 119 95 41 37 16 163 168 196 250 248 250 257 254 244 239 257 266 240 217 199 183 240 240 248 263 281 286 284 293 310 357 345 318 302 297 298 303 294 277 273 268 257 254 265 269 276 290 294 297 310 300 245
312 313 317 318 324 326 322 319 317 314 315 314 313 315 314 314 313 313 315 315 315 314 313 313 315 321 329 342 346 350 328 272 115 176 184 193 294 319 320 338 341 177 171 215 233 223 234 237 231 231 236 239 254 251 248 224 192 223 249 258 269 278 281 283 294 314 62 326 294 286 288 298 300 288 280 265 260 264 263 267 272 272 274 280 285 291 290 278
309 312 315 317 322 323 317 314 313 312 312 309 310 311 310 310 309 309 311 310 311 309 308 308 310 315 322 335 356 359 251 261 279 226 209 248 282 295 289 280 234 186 180 217 221 211 218 228 225 228 247 247 251 250 259 263 235 235 250 267 277 278 280 280 289 295 274 280 279 278 287 285 282 287 288 274 266 272 272 270 273 277 276 275 279 277 270 268
309 311 314 314 318 320 314 313 312 312 311 311 310 309 309 308 307 307 308 308 308 307 306 306 306 312 321 329 282 275 231 253 272 239 229 267 284 283 271 240 204 185 190 216 216 221 223 230 243 247 259 253 262 272 287 301 273 254 259 269 274 270 279 290 297 292 282 276 270 263 270 270 271 285 285 279 274 270 267 268 268 270 273 267 263 262 260 257
309 307 314 316 320 321 318 318 316 316 315 315 313 312 314 312 311 311 310 310 309 309 307 307 306 304 305 268 283 278 241 248 253 248 266 285 288 266 238 221 200 185 202 226 228 242 236 237 255 280 305 282 287 295 306 302 260 254 277 298 306 299 299 302 297 288 280 272 266 257 257 264 271 285 281 271 264 263 258 257 260 263 264 260 257 256 255 254
305 306 317 323 328 328 329 329 324 327 324 321 320 321 322 320 319 316 314 314 312 312 311 314 313 291 250 198 242 255 243 245 237 245 273 283 286 225 182 192 202 194 215 234 233 246 250 265 295 34 359 311 300 292 284 272 268 309 330 322 308 298 290 282 275 273 268 262 260 255 256 264 266 271 276 266 256 268 273 270 268 266 265 264 267 266 261 258
302 309 320 325 333 334 337 335 332 334 330 328 327 327 326 323 321 318 316 314 313 314 313 319 316 261 166 192 234 243 228 225 216 233 271 276 252 173 174 179 197 206 227 241 235 250 275 310 11 36 334 350 319 286 280 298 314 345 356 324 292 283 278 270 265 263 259 252 243 238 254 273 272 241 253 263 266 270 274 274 274 269 267 264 262 263 258 254
295 310 319 320 327 330 331 334 338 339 336 334 330 329 326 323 321 318 315 313 313 312 312 321 309 191 166 229 237 237 236 229 228 249 270 250 183 179 185 194 195 207 239 259 248 270 311 2 31 335 275 342 323 289 277 342 340 333 349 302 281 278 271 265 259 253 252 238 180 142 259 260 254 241 245 255 261 267 265 265 271 271 269 264 261 263 259 253
286 302 307 309 317 321 329 337 344 345 342 337 332 330 326 324 321 318 316 312 311 309 312 320 262 165 164 262 232 231 235 234 244 273 275 258 231 198 206 217 205 207 232 272 348 21 7 20 17 289 289 297 292 308 287 255 309 279 260 257 274 286 274 267 259 240 241 211 116 102 253 237 252 260 260 260 264 289 287 284 285 277 274 272 270 272 271 269
283 288 290 304 319 323 329 341 348 348 345 340 335 331 326 324 320 318 316 311 311 308 310 310 172 149 159 264 246 230 227 233 245 269 270 235 160 182 214 231 219 218 227 251 317 341 1 21 16 294 288 266 268 315 312 280 273 266 265 250 251 277 268 272 270 167 155 231 117 111 238 245 261 271 279 299 329 318 299 293 287 278 276 276 275 275 273 272
283 283 288 308 323 326 332 344 349 350 348 342 336 331 326 323 319 319 318 319 324 319 332 102 162 151 287 262 246 213 204 214 187 184 210 156 156 187 169 194 221 229 233 247 266 287 340 39 87 261 265 238 236 284 291 277 266 252 267 267 230 239 257 278 282 152 159 274 149 127 222 244 244 270 299 319 319 307 297 289 281 275 275 279 286 289 282 279
278 280 293 313 320 326 336 345 349 349 348 343 335 331 327 320 316 319 322 335 346 358 59 92 169 177 302 262 173 167 178 184 175 194 216 168 168 142 132 141 171 199 220 255 272 278 260 163 167 299 265 244 224 241 264 277 268 232 235 254 251 250 263 283 302 166 165 130 185 189 228 251 241 261 277 281 278 275 273 272 271 272 276 283 291 293 292 296
269 274 295 311 317 328 339 346 350 347 347 344 334 330 326 316 303 304 310 334 344 346 33 350 204 205 262 238 204 200 156 154 169 193 203 166 160 138 140 142 139 151 143 134 145 172 177 168 159 90 227 241 249 257 280 267 252 245 235 247 262 272 290 304 332 292 177 136 224 231 237 253 248 252 263 270 273 268 262 265 271 278 287 288 288 299 304 313
259 270 288 300 316 326 332 346 352 346 345 344 334 327 323 307 281 277 275 299 328 307 290 331 279 235 207 202 232 157 120 138 153 142 143 160 159 152 165 167 141 154 151 153 181 163 172 186 180 238 234 222 239 235 235 237 241 267 269 275 285 284 298 298 294 309 306 280 275 271 268 276 282 291 294 285 281 274 269 273 278 280 283 286 295 316 332 12
252 258 271 284 311 319 324 341 351 351 345 342 339 330 320 302 271 259 242 255 292 257 281 222 196 241 299 294 170 119 110 134 141 130 151 157 159 163 187 197 158 171 170 153 195 178 164 165 166 232 240 219 221 214 220 236 247 261 267 273 281 281 288 286 280 286 291 284 283 284 286 299 310 309 294 278 271 269 274 283 283 273 269 283 313 356 29 47
254 258 263 271 302 315 325 334 346 356 348 343 345 332 315 316 289 259 215 228 238 256 281 269 233 258 290 304 108 123 131 165 162 149 168 161 154 164 185 197 169 197 229 178 174 169 162 186 194 202 219 229 230 227 236 246 255 265 273 275 281 290 282 280 284 283 289 290 282 289 296 305 310 301 284 274 272 276 280 276 268 267 273 305 24 45 56 61
267 265 266 286 312 324 330 332 343 353 348 344 342 329 336 18 332 346 329 269 256 258 264 264 259 261 269 274 142 141 110 203 193 158 170 167 157 170 179 185 174 197 226 201 149 95 152 205 224 218 222 234 241 249 260 267 274 279 286 292 296 290 276 278 282 281 294 306 288 300 299 299 298 286 277 277 281 278 268 262 267 295 10 35 47 51 60 66
276 275 286 307 320 332 332 333 341 346 347 349 338 334 46 26 347 11 317 286 275 265 258 256 256 254 258 262 184 144 120 239 213 160 169 173 170 191 172 175 196 208 211 190 125 98 195 230 237 233 233 243 253 261 269 271 277 283 292 301 290 275 281 280 273 290 355 20 302 305 297 297 288 276 273 277 277 265 262 278 347 44 55 51 46 49 60 59
279 289 298 304 315 326 325 329 337 342 351 3 355 6 35 360 339 352 285 276 281 264 251 247 249 249 248 245 149 137 217 233 233 187 174 176 179 206 194 191 215 232 209 184 177 191 200 225 237 238 237 243 253 257 263 270 270 260 257 269 269 273 286 272 279 344 356 315 290 295 290 282 274 270 270 265 251 255 325 51 60 63 65 61 56 53 55 56
277 281 284 292 302 308 310 319 328 331 329 346 17 33 10 336 322 332 276 267 275 262 252 259 264 270 254 222 123 160 226 229 247 180 172 181 176 174 219 218 216 239 229 209 214 227 240 254 265 270 244 241 257 265 264 272 278 260 242 241 257 269 273 278 326 349 333 305 296 311 304 257 259 285 299 265 243 249 66 72 68 65 66 66 66 63 58 55
264 267 272 280 284 287 297 308 314 300 287 287 106 20 347 337 324 335 306 266 258 267 346 29 62 74 172 103 126 190 233 209 38 116 162 196 204 152 213 228 215 234 234 229 229 235 256 270 274 251 240 246 263 267 260 246 269 271 252 242 258 284 295 310 343 352 337 301 285 20 349 252 263 322 319 279 264 328 75 79 76 74 73 69 68 67 64 59
255 257 260 269 275 277 289 297 267 286 305 106 98 336 325 331 347 268 280 280 256 240 80 152 142 183 166 137 158 218 262 195 68 91 142 230 296 192 263 195 191 242 246 252 251 244 253 298 66 165 214 221 235 259 257 223 233 258 242 239 283 344 332 322 345 355 308 266 260 17 333 260 266 285 271 263 254 98 84 81 81 84 83 78 73 66 64 62
249 250 249 256 265 264 264 270 262 300 314 106 36 335 323 344 13 199 245 288 260 183 104 344 328 186 144 135 185 198 223 158 101 104 121 20 221 144 246 170 148 227 208 35 5 265 212 150 71 68 194 203 215 251 238 189 192 237 225 354 9 7 323 315 328 254 242 278 276 231 212 256 271 244 248 254 233 103 91 86 83 86 84 79 71 64 64 64
242 243 243 247 250 241 227 238 306 343 103 77 15 338 346 6 13 267 295 296 279 134 114 312 59 42 45 63 240 253 141 150 145 90 62 314 207 116 221 234 272 244 154 146 193 270 163 164 160 159 172 205 214 238 220 175 184 227 168 49 33 36 303 291 265 254 267 302 282 208 180 236 278 256 249 243 163 99 98 96 87 81 80 78 73 65 57 59
234 235 238 237 229 222 221 229 263 312 96 39 350 327 358 24 359 314 275 270 304 74 71 70 99 120 124 143 235 236 197 178 203 44 76 220 222 76 242 248 310 312 179 185 211 256 343 155 184 170 177 216 217 247 286 167 190 196 143 41 39 220 241 242 236 255 288 278 262 223 181 192 281 272 258 204 114 115 116 101 91 78 71 70 72 70 57 49
222 222 220 207 191 196 209 225 237 241 262 294 311 337 22 47 42 230 217 234 335 46 93 119 86 136 173 195 205 199 206 181 109 116 171 203 152 244 264 206 327 322 265 236 250 257 240 94 22 208 213 218 146 75 19 65 136 177 43 356 315 256 228 210 211 212 295 264 257 237 195 178 277 285 264 81 115 137 132 121 113 90 73 66 60 64 62 51
202 201 193 181 175 176 180 200 223 233 242 251 300 2 37 62 99 222 223 210 337 252 131 146 123 141 201 226 192 178 200 178 139 151 189 165 134 209 262 250 35 353 316 294 271 261 233 140 231 222 233 208 110 77 4 54 60 74 59 22 334 299 231 141 161 121 226 248 268 268 188 179 213 277 278 56 83 122 137 139 125 100 83 76 62 57 57 52
191 189 182 179 176 171 164 154 162 188 200 201 7 17 19 256 218 222 207 67 55 200 152 140 154 175 212 232 228 192 194 180 169 181 200 173 166 196 207 205 163 99 277 245 275 293 221 202 212 199 251 199 142 73 337 26 63 109 117 85 351 319 322 237 215 167 226 236 265 8 79 180 219 258 274 10 57 69 94 106 106 101 92 81 70 60 54 50
200 195 187 187 183 177 170 139 121 156 163 144 97 43 45 229 230 206 180 201 230 152 92 46 118 195 217 228 228 186 174 196 171 187 215 184 183 211 205 208 205 211 258 249 303 308 270 229 192 159 308 193 165 172 206 240 175 158 166 150 152 242 268 253 245 228 242 240 270 36 50 289 249 265 297 68 72 64 70 77 84 91 89 84 79 68 58 52
217 205 198 198 195 195 189 160 128 145 144 125 85 67 116 227 246 359 203 225 253 193 142 78 73 250 228 244 264 170 186 240 183 178 200 178 192 229 210 215 218 217 245 263 271 242 249 275 185 166 225 173 178 204 200 127 164 187 188 157 167 201 225 244 257 250 251 268 306 10 78 241 238 192 93 92 89 77 77 80 83 86 87 90 88 79 67 55
241 225 219 212 209 210 200 185 164 147 142 123 90 124 213 225 222 294 251 263 286 274 153 104 111 266 252 242 257 217 197 221 199 186 193 195 220 240 222 231 224 210 199 224 245 195 226 260 195 147 257 153 176 246 358 73 139 222 148 129 206 211 206 256 267 247 254 297 291 248 220 253 218 115 104 98 92 85 85 89 88 88 91 93 88 79 71 59
262 251 244 228 223 218 205 197 181 160 155 127 131 214 225 226 214 213 264 292 280 296 321 237 169 240 261 241 222 222 198 184 204 188 200 224 252 254 246 256 225 212 192 193 257 252 219 249 85 58 345 117 178 331 28 90 228 34 83 189 233 202 138 272 277 267 267 276 268 248 257 275 232 118 102 93 89 88 87 88 89 91 94 91 83 78 74 72
279 268 250 233 229 219 206 201 183 168 158 127 195 229 223 212 231 239 289 337 313 331 307 258 188 206 252 255 234 219 177 96 199 181 211 221 245 247 232 228 36 347 358 90 278 288 289 268 222 189 14 340 272 343 347 253 155 115 169 235 289 359 66 168 257 274 266 261 257 247 262 273 258 220 120 100 95 95 95 94 92 91 89 85 79 82 79 79
11 291 258 245 235 219 203 195 177 161 134 169 224 239 235 219 227 228 232 244 243 229 231 237 220 230 252 262 272 202 126 130 197 181 200 218 228 213 186 200 21 4 3 43 79 321 357 293 256 203 130 215 269 20 341 270 191 138 181 211 85 92 289 226 198 218 239 256 253 239 255 262 253 235 142 126 118 117 120 115 113 112 107 104 104 107 100 87
128 233 270 238 221 209 194 181 165 152 165 206 228 237 234 237 237 236 233 227 230 219 220 237 231 242 256 256 275 204 159 191 211 192 167 198 229 81 87 72 39 21 15 51 113 336 12 252 260 29 105 131 57 60 209 261 300 49 45 347 146 178 212 204 209 221 229 254 263 253 257 258 277 328 113 128 131 132 134 130 132 136 131 134 144 149 147 147
183 240 244 151 174 184 176 164 157 176 198 211 227 229 230 245 240 235 229 201 198 213 219 238 233 238 253 251 257 252 196 202 221 222 204 219 254 22 47 29 74 96 35 47 51 351 21 239 250 295 95 108 151 203 177 193 278 79 58 293 270 242 258 254 253 235 229 253 261 260 258 244 303 353 97 119 127 138 145 145 152 157 145 150 172 172 166 169
198 248 203 148 157 162 157 155 176 195 203 222 230 228 231 242 235 221 200 156 202 233 219 239 241 242 255 254 251 248 231 228 232 232 227 233 251 301 24 1 15 67 39 26 19 55 30 273 275 303 301 242 247 246 121 81 105 126 134 236 251 42 319 280 258 229 212 235 242 258 262 243 260 334 98 114 124 133 142 147 154 165 159 158 171 168 164 169
232 191 135 142 156 159 155 169 204 195 216 230 227 229 229 229 222 188 149 151 201 233 231 239 246 243 247 261 271 267 260 252 234 233 226 224 247 273 194 319 356 40 60 10 139 99 73 80 233 274 269 256 270 282 289 291 257 169 163 201 189 140 147 236 254 260 263 251 242 262 256 229 182 342 93 110 121 120 135 148 148 155 152 147 155 161 167 171
224 173 119 143 164 170 169 196 208 208 230 231 236 246 234 225 222 196 186 190 185 200 219 231 237 236 237 249 264 265 260 244 222 238 251 248 276 44 53 18 17 32 31 289 220 90 67 118 208 255 266 271 276 276 284 317 306 184 212 250 198 171 229 226 228 267 290 247 250 260 254 241 263 286 93 120 127 122 142 147 141 144 137 138 154 163 172 177
210 188 111 161 178 189 203 206 204 212 223 229 238 236 233 236 231 220 215 209 197 205 217 222 228 230 234 241 242 242 244 240 238 242 236 233 215 61 33 6 21 37 19 348 245 229 264 236 174 237 278 285 282 275 310 20 35 51 309 307 317 332 332 324 255 215 207 219 231 244 250 243 218 241 263 143 130 130 142 117 118 137 144 152 169 176 187 189
199 181 85 166 189 208 232 229 228 226 218 223 230 230 234 238 232 231 231 225 217 220 229 235 237 238 241 244 250 254 240 209 231 260 146 153 125 60 23 7 35 70 59 21 358 44 196 254 150 177 236 248 258 261 200 94 42 342 281 288 300 302 299 308 305 270 256 247 249 252 260 269 253 229 234 196 156 161 192 159 150 163 171 175 176 189 202 191
201 203 136 149 200 226 252 274 275 261 223 219 225 227 227 232 234 222 219 229 226 217 232 255 248 264 250 235 234 255 248 211 184 242 332 110 139 69 43 42 57 75 81 27 6 38 107 258 216 208 234 246 259 273 273 50 321 297 291 287 283 279 274 271 261 259 278 307 289 262 263 277 281 275 268 224 177 202 211 200 195 186 179 173 171 186 193 175
244 230 186 162 196 225 239 248 234 231 248 242 230 223 221 228 237 211 193 209 218 208 225 243 229 218 210 217 227 236 241 232 216 231 233 199 134 63 60 66 71 89 115 59 355 68 130 248 237 225 241 251 262 277 290 299 286 273 277 277 274 275 266 249 246 258 296 300 270 264 272 278 278 281 289 296 284 249 212 194 189 176 168 166 163 171 180 217
233 281 240 201 207 210 215 221 217 221 240 257 260 252 234 226 226 216 191 183 209 206 208 226 229 230 224 222 229 230 234 238 234 232 227 201 139 119 99 59 77 139 135 72 2 106 135 249 253 245 257 261 265 271 275 282 281 274 273 273 274 273 264 256 254 248 244 253 257 267 276 276 274 278 286 292 294 255 157 144 130 129 145 154 156 177 206 224
239 282 290 278 260 218 213 204 199 216 231 241 255 259 251 237 231 224 180 161 210 208 203 225 230 228 234 237 234 232 234 233 231 233 208 90 102 143 156 49 69 173 128 83 295 143 148 250 258 266 274 268 265 268 268 271 275 274 271 268 265 264 263 266 264 251 243 251 263 273 276 275 276 283 290 295 69 100 97 100 112 133 150 154 160 188 219 233
267 325 287 276 272 270 260 211 187 204 224 229 235 242 246 249 246 239 166 161 202 192 203 225 223 136 37 270 215 226 215 151 158 169 112 99 111 127 145 231 172 152 107 99 259 272 234 217 215 20 298 273 269 268 263 262 267 272 274 267 260 263 269 271 267 263 262 263 265 269 272 273 277 287 296 78 101 88 86 105 116 122 115 104 97 44 324 302
268 23 353 307 273 203 197 213 190 197 215 217 226 235 233 234 240 247 280 123 175 172 195 195 163 104 60 69 90 195 154 130 143 154 130 136 149 95 80 286 119 129 150 144 203 290 248 235 324 346 269 270 276 273 139 10 345 296 272 263 257 259 263 261 259 258 258 260 264 266 265 265 265 98 113 102 78 61 63 66 48 58 83 83 55 303 287 287
231 359 247 289 297 217 181 187 199 205 216 215 216 225 228 233 238 240 239 96 67 52 95 132 133 123 118 147 147 121 120 125 130 117 111 121 87 66 197 236 146 154 174 170 169 197 173 182 259 229 245 270 277 113 96 51 349 274 259 255 253 251 250 252 254 251 250 252 257 260 256 240 194 139 141 106 68 55 31 47 54 49 55 104 235 255 262 268